TimeMDT,TemperatureF,Dew PointF,Humidity,Sea Level PressureIn,VisibilityMPH,Wind Direction,Wind SpeedMPH,Gust SpeedMPH,PrecipitationIn,Events,Conditions,WindDirDegrees,DateUTC
12:15 AM,23.5,15.6,72,30.37,10.0,Calm,Calm,-,N/A,,Clear,0,2013-03-20 06:15:00
12:35 AM,25.3,15.4,66,30.36,10.0,Calm,Calm,-,N/A,,Clear,0,2013-03-20 06:35:00
12:55 AM,23.4,14.4,68,30.37,10.0,Calm,Calm,-,N/A,,Clear,0,2013-03-20 06:55:00
1:15 AM,19.8,12.6,74,30.38,10.0,Calm,Calm,-,N/A,,Clear,0,2013-03-20 07:15:00
1:35 AM,18.1,12.9,80,30.36,10.0,NW,3.5,-,N/A,,Clear,320,2013-03-20 07:35:00
1:55 AM,17.6,12.0,79,30.36,10.0,WNW,3.5,-,N/A,,Clear,290,2013-03-20 07:55:00
2:15 AM,17.4,11.8,79,30.36,10.0,NNW,4.6,-,N/A,,Clear,340,2013-03-20 08:15:00
2:35 AM,17.6,11.5,77,30.36,10.0,Calm,Calm,-,N/A,,Clear,0,2013-03-20 08:35:00
2:55 AM,16.2,11.1,81,30.36,10.0,Calm,Calm,-,N/A,,Clear,0,2013-03-20 08:55:00
3:15 AM,15.6,10.4,80,30.35,10.0,Calm,Calm,-,N/A,,Clear,0,2013-03-20 09:15:00
3:35 AM,14.9,10.2,82,30.34,10.0,Calm,Calm,-,N/A,,Clear,0,2013-03-20 09:35:00
3:55 AM,15.1,10.2,81,30.32,10.0,Calm,Calm,-,N/A,,Clear,0,2013-03-20 09:55:00
4:15 AM,14.4,10.6,85,30.32,10.0,Calm,Calm,-,N/A,,Clear,0,2013-03-20 10:15:00
4:35 AM,14.4,10.4,84,30.31,10.0,Calm,Calm,-,N/A,,Clear,0,2013-03-20 10:35:00
4:55 AM,13.1,9.3,85,30.31,10.0,West,4.6,-,N/A,,Clear,270,2013-03-20 10:55:00
5:15 AM,13.5,9.7,85,30.31,10.0,West,3.5,-,N/A,,Clear,280,2013-03-20 11:15:00
5:35 AM,13.5,9.5,84,30.31,10.0,West,3.5,-,N/A,,Clear,260,2013-03-20 11:35:00
5:55 AM,13.3,10.0,87,30.31,10.0,West,4.6,-,N/A,,Clear,270,2013-03-20 11:55:00
6:15 AM,13.1,9.7,86,30.31,10.0,WSW,3.5,-,N/A,,Clear,250,2013-03-20 12:15:00
6:35 AM,13.5,10.0,86,30.30,10.0,Calm,Calm,-,N/A,,Clear,0,2013-03-20 12:35:00
6:55 AM,14.0,10.4,86,30.30,10.0,Calm,Calm,-,N/A,,Clear,0,2013-03-20 12:55:00
7:15 AM,14.5,11.3,87,30.30,10.0,Calm,Calm,-,N/A,,Clear,0,2013-03-20 13:15:00
7:35 AM,16.5,13.5,88,30.30,10.0,Calm,Calm,-,N/A,,Clear,0,2013-03-20 13:35:00
7:55 AM,19.2,15.8,87,30.29,10.0,Calm,Calm,-,N/A,,Clear,0,2013-03-20 13:55:00
8:15 AM,20.8,16.0,81,30.28,10.0,Calm,Calm,-,N/A,,Clear,0,2013-03-20 14:15:00
8:35 AM,23.7,16.7,75,30.28,10.0,Calm,Calm,-,N/A,,Clear,0,2013-03-20 14:35:00
8:55 AM,27.7,16.5,63,30.28,10.0,South,6.9,-,N/A,,Clear,190,2013-03-20 14:55:00
9:15 AM,30.4,12.9,48,30.27,10.0,SSW,10.4,-,N/A,,Clear,200,2013-03-20 15:15:00
9:55 AM,32.2,10.0,40,30.25,10.0,South,9.2,-,N/A,,Clear,190,2013-03-20 15:55:00
10:15 AM,33.6,11.3,40,30.24,10.0,South,11.5,17.3,N/A,,Clear,190,2013-03-20 16:15:00
10:35 AM,35.1,12.6,40,30.23,10.0,South,11.5,-,N/A,,Clear,180,2013-03-20 16:35:00
10:55 AM,36.9,13.8,39,30.21,10.0,South,10.4,-,N/A,,Clear,190,2013-03-20 16:55:00
11:15 AM,38.3,14.5,38,30.19,10.0,South,13.8,19.6,N/A,,Clear,190,2013-03-20 17:15:00
11:35 AM,39.7,15.8,38,30.17,10.0,South,15.0,21.9,N/A,,Clear,180,2013-03-20 17:35:00
11:55 AM,40.8,15.6,36,30.15,10.0,South,11.5,19.6,N/A,,Clear,190,2013-03-20 17:55:00
12:15 PM,42.8,15.8,34,30.13,10.0,South,17.3,25.3,N/A,,Clear,170,2013-03-20 18:15:00
12:35 PM,42.8,15.4,33,30.12,10.0,South,17.3,21.9,N/A,,Clear,170,2013-03-20 18:35:00
12:55 PM,44.1,15.6,32,30.11,10.0,South,17.3,20.7,N/A,,Clear,170,2013-03-20 18:55:00
1:15 PM,44.6,15.6,31,30.09,10.0,South,18.4,23.0,N/A,,Clear,170,2013-03-20 19:15:00
1:35 PM,46.2,16.9,31,30.07,10.0,South,16.1,24.2,N/A,,Clear,180,2013-03-20 19:35:00
1:55 PM,47.1,16.9,30,30.05,10.0,South,15.0,24.2,N/A,,Clear,170,2013-03-20 19:55:00
2:15 PM,47.1,16.7,30,30.02,10.0,South,17.3,23.0,N/A,,Clear,170,2013-03-20 20:15:00
2:35 PM,48.7,16.5,28,30.01,10.0,South,15.0,24.2,N/A,,Clear,170,2013-03-20 20:35:00
2:55 PM,49.1,16.0,27,29.99,10.0,South,16.1,25.3,N/A,,Clear,180,2013-03-20 20:55:00
3:15 PM,49.5,15.8,26,29.98,10.0,South,17.3,23.0,N/A,,Clear,180,2013-03-20 21:15:00
3:35 PM,49.8,16.5,27,29.97,10.0,South,17.3,21.9,N/A,,Clear,180,2013-03-20 21:35:00
3:55 PM,50.5,16.9,26,29.95,10.0,South,13.8,21.9,N/A,,Clear,180,2013-03-20 21:55:00
4:15 PM,51.3,17.4,26,29.94,10.0,South,16.1,20.7,N/A,,Clear,170,2013-03-20 22:15:00
4:35 PM,51.4,17.4,26,29.93,10.0,South,16.1,25.3,N/A,,Clear,180,2013-03-20 22:35:00
4:55 PM,52.0,17.8,26,29.91,10.0,South,15.0,23.0,N/A,,Clear,180,2013-03-20 22:55:00
5:15 PM,50.0,17.4,28,29.90,10.0,South,12.7,20.7,N/A,,Scattered Clouds,170,2013-03-20 23:15:00
5:35 PM,49.5,17.2,28,29.89,10.0,SSE,12.7,18.4,N/A,,Mostly Cloudy,150,2013-03-20 23:35:00
5:55 PM,50.2,17.1,27,29.88,10.0,SSE,12.7,19.6,N/A,,Mostly Cloudy,150,2013-03-20 23:55:00
6:15 PM,48.9,16.7,28,29.86,10.0,SSE,12.7,21.9,N/A,,Overcast,150,2013-03-21 00:15:00
6:35 PM,47.7,16.7,29,29.86,10.0,SE,15.0,-,N/A,,Mostly Cloudy,140,2013-03-21 00:35:00
6:55 PM,46.4,16.7,31,29.85,10.0,SE,12.7,19.6,N/A,,Overcast,130,2013-03-21 00:55:00
7:15 PM,45.1,16.9,32,29.84,10.0,SE,11.5,-,N/A,,Overcast,130,2013-03-21 01:15:00
7:35 PM,44.4,17.6,34,29.84,10.0,SE,9.2,-,N/A,,Overcast,130,2013-03-21 01:35:00
7:55 PM,43.9,18.1,36,29.84,10.0,ESE,6.9,-,N/A,,Mostly Cloudy,120,2013-03-21 01:55:00
8:15 PM,42.8,19.0,39,29.85,10.0,ESE,6.9,-,N/A,,Scattered Clouds,110,2013-03-21 02:15:00
8:35 PM,42.1,19.0,40,29.84,10.0,ESE,9.2,-,N/A,,Scattered Clouds,110,2013-03-21 02:35:00
8:55 PM,41.4,19.0,41,29.84,10.0,East,8.1,-,N/A,,Mostly Cloudy,100,2013-03-21 02:55:00
9:15 PM,40.8,19.0,42,29.84,10.0,East,9.2,-,N/A,,Overcast,100,2013-03-21 03:15:00
9:35 PM,40.6,19.2,42,29.84,10.0,ESE,9.2,-,N/A,,Overcast,110,2013-03-21 03:35:00
9:55 PM,40.6,19.4,43,29.84,10.0,SE,13.8,-,N/A,,Overcast,130,2013-03-21 03:55:00
10:15 PM,40.5,19.0,42,29.83,10.0,ESE,9.2,21.9,N/A,,Overcast,120,2013-03-21 04:15:00
10:35 PM,39.7,18.5,42,29.84,10.0,East,9.2,19.6,N/A,,Overcast,90,2013-03-21 04:35:00
10:55 PM,39.2,18.5,43,29.83,10.0,ESE,16.1,-,N/A,,Overcast,110,2013-03-21 04:55:00
11:15 PM,38.3,18.7,45,29.82,10.0,ESE,17.3,20.7,N/A,,Overcast,120,2013-03-21 05:15:00
11:35 PM,37.6,19.0,47,29.81,10.0,SE,13.8,23.0,N/A,,Overcast,130,2013-03-21 05:35:00